Weather History for Jerez de la Frontera, Spain

Change the Weather History Date:

Monday, March 17, 2014

  Actual Average Record
Temperature  
Mean Temperature 61 °F -  
Max Temperature 81 °F 69 °F 81 °F (2014)
Min Temperature 41 °F 47 °F 41 °F (1998)
Degree Days  
Heating Degree Days 4    
Growing Degree Days 11 (Base 50)    
Moisture  
Dew Point 42 °F    
Average Humidity 52    
Maximum Humidity 87    
Minimum Humidity 9    
Precipitation  
Precipitation 0.00 in 0.07 in - ()
Sea Level Pressure  
Sea Level Pressure 30.15 in    
Wind  
Wind Speed 2 mph ()    
Max Wind Speed 9 mph    
Max Gust Speed -    
Visibility 18.2 miles    
Events      
Averages and records for this station are not official NWS values.
T = Trace of Precipitation, MM = Missing Value Source: Averaged Metar Reports

Daily Weather History Graph

Daily Weather History Graph

Search for Another Location

Airport:

Trip Planner

Search our weather history database for the weather conditions in past years. The results will help you decide how hot, cold, wet, or windy it might be!

Date:

Astronomy

Mar. 17, 2014 Rise Set
Actual Time 7:32 AM CET 7:33 PM CET
Civil Twilight 7:06 AM CET 7:59 PM CET
Nautical Twilight 6:36 AM CET 8:29 PM CET
Astronomical Twilight 6:06 AM CET 8:59 PM CET
Moon 8:33 PM CET (3/17) 7:42 AM CET (3/17)
Length of Visible Light 12h 52m
Length of Day
12h 00m
Waxing Gibbous, 99% of the Moon is Illuminated
Mar 17
Waxing Gibbous
Mar 24
Last Quarter
Mar 30
New
Apr 7
First Quarter
Apr 15
Full

Hourly Weather History & Observations

Time (CET) Temp. Windchill Dew Point Humidity Pressure Visibility Wind Dir Wind Speed Gust Speed Precip Events Conditions
12:00 AM 50 °F - 46 °F 81% 30.21 in - NE 2.3 mph - -  
1:00 AM 50 °F - 46 °F 81% 30.19 in 19 mi NNE 2.3 mph - -  
2:00 AM 47 °F - 44 °F 83% 30.18 in - Calm Calm - -  
3:00 AM 48 °F - 45 °F 87% 30.17 in - SW 1.2 mph - -  
4:00 AM 45 °F - 41 °F 79% 30.16 in 19 mi East 2.3 mph - -  
4:30 AM 44.6 °F - 41.0 °F 87% 30.15 in - Calm Calm - N/A   Clear
5:00 AM 46.4 °F - 41.0 °F 81% 30.12 in - Calm Calm - N/A   Clear
5:30 AM 44.6 °F 43.1 °F 41.0 °F 87% 30.12 in - East 3.5 mph - N/A   Clear
6:00 AM 43 °F - 40 °F 85% 30.15 in - ENE 2.3 mph - -  
6:00 AM 42.8 °F - 39.2 °F 87% 30.12 in - Variable 2.3 mph - N/A   Clear
6:30 AM 44.6 °F - 41.0 °F 87% 30.15 in - Calm Calm - N/A   Clear
7:00 AM 42 °F - 39 °F 84% 30.16 in 28 mi North 3.5 mph - -  
7:00 AM 42.8 °F - 39.2 °F 87% 30.15 in - Variable 2.3 mph - N/A   Clear
7:30 AM 41.0 °F 38.0 °F 37.4 °F 87% 30.15 in - ENE 4.6 mph - N/A   Clear
8:00 AM 44 °F - 39 °F 78% 30.17 in - Calm Calm - -  
8:00 AM 44.6 °F - 39.2 °F 81% 30.15 in - Calm Calm - N/A   Clear
8:30 AM 46.4 °F - 41.0 °F 81% 30.15 in - Variable 2.3 mph - N/A   Clear
9:00 AM 53 °F - 42 °F 56% 30.19 in - Calm Calm - -  
9:00 AM 50.0 °F - 42.8 °F 76% 30.18 in - Calm Calm - N/A   Clear
9:30 AM 53.6 °F - 42.8 °F 67% 30.18 in - Calm Calm - N/A   Clear
10:00 AM 62 °F - 41 °F 35% 30.20 in 31 mi Calm Calm - -  
10:00 AM 59.0 °F - 42.8 °F 55% 30.18 in - Variable 1.2 mph - N/A   Clear
10:30 AM 62.6 °F - 41.0 °F 45% 30.18 in - Variable 1.2 mph - N/A   Clear
11:00 AM 68 °F - 40 °F 25% 30.19 in - Calm Calm - -  
11:00 AM 66.2 °F - 42.8 °F 43% 30.18 in - Calm Calm - N/A   Clear
11:30 AM 68.0 °F - 42.8 °F 40% 30.18 in - Variable 2.3 mph - N/A   Clear
12:00 PM 71 °F - 46 °F 29% 30.19 in - North 2.3 mph - -  
12:00 PM 69.8 °F - 46.4 °F 43% 30.18 in - Variable 2.3 mph - N/A   Clear
12:30 PM 71.6 °F - 39.2 °F 31% 30.18 in - Calm Calm - N/A   Clear
1:00 PM 76 °F - 45 °F 23% 30.17 in 31 mi Calm Calm - -  
1:00 PM 73.4 °F - 42.8 °F 33% 30.15 in - Calm Calm - N/A   Clear
1:30 PM 75.2 °F - 42.8 °F 31% 30.15 in - Variable 1.2 mph - N/A   Clear
2:00 PM 79 °F - 40 °F 15% 30.15 in - SSW 2.3 mph - -  
2:00 PM 77.0 °F - 41.0 °F 28% 30.15 in - Calm Calm - N/A   Clear
2:30 PM 78.8 °F - 28.4 °F 16% 30.12 in - Variable 2.3 mph - N/A   Clear
3:00 PM 80 °F - 36 °F 11% 30.13 in - South 2.3 mph - -  
3:00 PM 77.0 °F - 35.6 °F 22% 30.12 in - Variable 2.3 mph - N/A   Clear
3:30 PM 78.8 °F - 35.6 °F 21% 30.12 in - Calm Calm - N/A   Clear
4:00 PM 81 °F - 37 °F 12% 30.12 in 37 mi South 5.8 mph - -  
4:00 PM 78.8 °F - 39.2 °F 24% 30.09 in - South 4.6 mph - N/A   Clear
4:30 PM 78.8 °F - 37.4 °F 23% 30.09 in - SSW 4.6 mph - N/A   Clear
5:00 PM 81 °F - 33 °F 9% 30.12 in - South 4.6 mph - -  
5:00 PM 78.8 °F - 37.4 °F 23% 30.09 in - South 5.8 mph - N/A   Clear
5:30 PM 78.8 °F - 37.4 °F 23% 30.09 in - SSE 4.6 mph - N/A   Clear
6:00 PM 78 °F - 44 °F 20% 30.12 in - South 9.2 mph - -  
6:00 PM 75.2 °F - 41.0 °F 29% 30.12 in - South 8.1 mph - N/A   Clear
6:30 PM 73.4 °F - 46.4 °F 38% 30.12 in - South 6.9 mph - N/A   Clear
7:00 PM 71 °F - 50 °F 37% 30.14 in 19 mi South 4.6 mph - -   Clear
7:00 PM 69.8 °F - 50.0 °F 49% 30.12 in - South 5.8 mph - N/A   Clear
7:30 PM 64.4 °F - 48.2 °F 56% 30.12 in - Variable 2.3 mph - N/A   Clear
8:00 PM 64 °F - 49 °F 47% 30.15 in - SSW 1.2 mph - -  
8:00 PM 62.6 °F - 48.2 °F 59% 30.12 in - Variable 2.3 mph - N/A   Clear
8:30 PM 62.6 °F - 48.2 °F 59% 30.15 in - Calm Calm - N/A   Clear
9:00 PM 60 °F - 46 °F 50% 30.17 in - NNE 2.3 mph - -  
9:00 PM 59.0 °F - 46.4 °F 63% 30.15 in - Variable 1.2 mph - N/A   Clear
9:30 PM 57.2 °F - 46.4 °F 67% 30.15 in - Calm Calm - N/A   Clear
10:00 PM 56 °F - 45 °F 56% 30.18 in 16 mi Calm Calm - -   Clear
10:00 PM 55.4 °F - 44.6 °F 67% 30.15 in - Calm Calm - N/A   Clear
10:30 PM 55.4 °F - 46.4 °F 72% 30.15 in - Calm Calm - N/A   Clear
11:00 PM 53 °F - 44 °F 63% 30.19 in - Calm Calm - -  
11:00 PM 53.6 °F - 44.6 °F 72% 30.18 in - Calm Calm - N/A   Clear